This demonstration page uses our WeatherBlox Daily Observations layout. Learn more.

Left ArrowRight Arrow

39.01783, -85.05884

Hourly Observations for May 24, 2018

Temp ( °F °C ) Dew Point ( °F °C ) Humidity (%) Winds ( mph kmh ) Pressure ( in mb ) Visibility ( mi km ) Precip ( " mm )
12:52 am 00:52 Partly Cloudy 67 19.4 56 13.3 68 68 E 7 11 30.16 1022 10 16 0.00 0.00
1:52 am 01:52 Clear 66 18.9 56 13.3 70 70 E 8 13 30.16 1021 10 16 0.00 0.00
2:52 am 02:52 Clear 64 17.8 56 13.3 75 75 E 6 9 30.15 1021 10 16 0.00 0.00
3:52 am 03:52 Clear 63 17.2 56 13.3 78 78 E 5 7 30.15 1021 10 16 0.00 0.00
4:52 am 04:52 Clear 61 16.1 56 13.3 84 84 Calm 30.15 1021 10 16 0.00 0.00
5:52 am 05:52 Mostly Clear 64 17.8 57 13.9 78 78 ENE 7 11 30.15 1021 8 13 0.00 0.00
6:52 am 06:52 Partly Cloudy 62 16.7 56 13.3 80 80 N 5 7 30.17 1022 10 16 0.00 0.00
7:52 am 07:52 Mostly Sunny 64 17.8 58 14.4 81 81 Calm 30.19 1022 9 14 0.00 0.00
8:52 am 08:52 Mostly Sunny 68 20 58 14.4 70 70 ESE 7 11 30.19 1023 10 16 0.00 0.00
9:52 am 09:52 Sunny 71 21.7 57 13.9 61 61 E 7 11 30.20 1023 10 16 0.00 0.00
10:52 am 10:52 Mostly Sunny 73 22.8 56 13.3 55 55 E 8 13 30.19 1023 10 16 0.00 0.00
11:52 am 11:52 Mostly Sunny 75 23.9 57 13.9 54 54 E 9 15 30.17 1022 10 16 0.00 0.00
12:52 pm 12:52 Mostly Sunny 77 25 58 14.4 52 52 ESE 8 13 30.17 1022 10 16 0.00 0.00
1:52 pm 13:52 Sunny 79 26.1 55 12.8 44 44 NE 13 20 30.14 1021 10 16 0.00 0.00
2:52 pm 14:52 Sunny 80 26.7 56 13.3 44 44 NE 6 9 30.13 1020 10 16 0.00 0.00
3:52 pm 15:52 Mostly Sunny 80 26.7 55 12.8 42 42 VRB 6 9 30.10 1019 10 16 0.00 0.00
4:52 pm 16:52 Mostly Sunny 81 27.2 55 12.8 41 41 E 6 9 30.09 1019 10 16 0.00 0.00
5:52 pm 17:52 Mostly Sunny 82 27.8 54 12.2 38 38 ENE 7 11 30.07 1018 10 16 0.00 0.00
6:52 pm 18:52 Mostly Sunny 81 27.2 54 12.2 39 39 Calm 30.06 1018 10 16 0.00 0.00
7:52 pm 19:52 Mostly Sunny 79 26.1 54 12.2 42 42 ESE 8 13 30.05 1018 10 16 0.00 0.00
8:52 pm 20:52 Mostly Sunny 73 22.8 56 13.3 55 55 SSE 5 7 30.05 1018 10 16 0.00 0.00
9:52 pm 21:52 Clear 71 21.7 54 12.2 55 55 SSE 3 6 30.05 1018 10 16 0.00 0.00
10:52 pm 22:52 Clear 68 20 54 12.2 61 61 SSE 3 6 30.06 1018 10 16 0.00 0.00
11:52 pm 23:52 Clear 66 18.9 55 12.8 68 68 Calm 30.06 1018 10 16 0.00 0.00

Powered by AerisWeather